Location: Freistadt
(48.5112°N, 14.5013°E)
Time: 17:00:57
(UTC+02:00)

CUBEBUG 2 - Pass Details

Date: 03 April 2023
Orbit: 577 x 685 km, 97.8° (Epoch: 02 June)

Event Time Altitude Azimuth Distance (km) Brightness Sun altitude
Rises 02:46:54 0° 22° (NNE) 3,065 ? -31.9°
Reaches altitude 10° 02:49:29 10° 35° (NE) 2,136 ? -31.7°
Enters shadow 02:52:58 27° 82° (E) 1,306 ? -31.4°
